Regional Weather Roundup
Issued by NWS Jackson, KY

Home | Current Version | Previous Version | Text Only | Print | Product List | Glossary Off
Versions: 1 2 3 4 5 6 7 8 9 10 11 12 13 14 15 16 17 18 19 20 21 22 23 24 25 26 27 28

000
ASUS43 KJKL 220710
RWRJKL

EAST KENTUCKY HOURLY WEATHER ROUNDUP
NATIONAL WEATHER SERVICE JACKSON KY
300 AM EDT SUN APR 22 2018

NOTE: "FAIR" INDICATES FEW OR NO CLOUDS BELOW 12,000 FEET WITH
NO SIGNIFICANT WEATHER AND/OR OBSTRUCTIONS TO VISIBILITY.

* THESE REPORTS ARE NOT UNDER NWS QUALITY CONTROL AND MAY NOT
  REPORT WEATHER SUCH AS PRECIPITATION AND FOG.

KYZ079-080-083-085-087-088-110-112-115-119-120-220800
...EASTERN KENTUCKY...

CITY           SKY/WX    TMP DP  RH WIND       PRES   REMARKS
JACKSON          N/A     53  20  27 NE6       30.26F
LONDON           N/A     56  24  29 NE3       30.24F
SOMERSET*        N/A     46  37  71 CALM      30.24F
MONTICELLO*      N/A     47  43  86 VRB6      30.24F
WILLIAMSBURG*    N/A     46  39  76 CALM      30.23F
MIDDLESBORO*     N/A     45  40  81 CALM      30.26S
HARLAN APT*      N/A     47  36  63 CALM      30.26S
PIKE CO APT*     N/A     51  23  34 N6        30.26F
BIG SANDY APT*   N/A     49  23  35 NE5       30.26F
MOREHEAD APT*    N/A     54  19  26 NE7       30.29S
ASHLAND*         N/A     47  37  68 W5        30.30S
$$

KYZ035-036-041-042-044-050-067-078-099-220800
...CENTRAL KENTUCKY...

CITY           SKY/WX    TMP DP  RH WIND       PRES   REMARKS
MT STERLING*     N/A     46  32  57 NE6       30.29S
FLEMING/MASON*   N/A     49  26  40 NE7       30.30F
DANVILLE*        N/A     46  32  57 CALM      30.25F
LEXINGTON        N/A     49  32  52 NE9       30.25F
FRANKFORT        N/A     52  26  36 NE7       30.24F
LOUISVILLE       N/A     54  26  34 NE7       30.24F
GLASGOW*         N/A     54  37  52 NE7       30.20F
BOWLING GREEN    N/A     57  38  48 E7        30.19F
$$

KYZ091>093-OHZ055-061-077-WVZ005-015-034-035-042-220800
...SOUTHERN OHIO/WEST VIRGINIA...

CITY           SKY/WX    TMP DP  RH WIND       PRES   REMARKS
COVINGTON      CLOUDY    50  26  39 NE8       30.29F
COLUMBUS       CLOUDY    47  26  44 NE5       30.32F
DAYTON         CLOUDY    43  26  51 NE3       30.33S
WILMINGTON       N/A     43  30  60 NE6       30.30F
HUNTINGTON       N/A     54  21  27 E6        30.28F
CHARLESTON     MOCLDY    51  25  36 CALM      30.26F
PINEVILLE*       N/A     44  34  67 MISG      30.32R
BECKLEY          N/A     51  30  44 CALM      30.27F
BLUEFIELD        N/A     52  27  38 S12G17    30.28F
LOGAN CO APT*    N/A     54  19  26 CALM      30.26F
$$

VAZ002-007-008-TNZ017-027-036-066-071-220800
...SOUTHWEST VIRGINIA/EAST TENNESSEE...

CITY           SKY/WX    TMP DP  RH WIND       PRES   REMARKS
WISE*            N/A     54  32  43 SE5       30.28F
JONESVILLE*      N/A     45  37  76 CALM      30.28S
ABINGDON*        N/A     49  34  57 CALM      30.28S
BRISTOL          N/A     46  37  71 CALM      30.26F
MORRISTOWN*    SUNNY     48  37  66 CALM      30.24S
SEVIERVILLE*   PTSUNNY   50  39  66 CALM      30.23F
KNOXVILLE      CLOUDY    50  41  71 NE5       30.22F
LAFOLLETTE*    SUNNY     45  41  87 CALM      30.27F
OAK RIDGE        N/A     49  42  77 CALM      30.25F
CROSSVILLE       N/A     55  36  48 SE3       30.23F
NASHVILLE      CLOUDY    61  39  44 S6        30.17F
$$

...KEY TO REMARKS...
VSB - VISIBILITY IN MILES
WCI - WIND CHILL INDEX
HX  - HEAT INDEX

$$




USA.gov is the U.S. government's official web portal to all federal, state and local government web resources and services.